Кожино

Россия / Московская область     55°36′54″N   36°14′46″E
темп.,
°C
ветер,
м/с
пор.,
м/с
влажн.,
%
обл.,
%
осадки,
мм/ч
давл.,
гПа
погр.,
м
23 апреля, пт
пт2300:00+7ю3119273 0.0 1014267
03:00+5ююв3109610 0.0 1013243
06:00+6ююв4129452 0.0 1013342
09:00+10ю5138282 0.1 1012701
12:00+13ююз7136999 0.4 10111633
15:00+5зсз3795100 2.7 1013382
18:00+6ююз2588100 4.3 1014601
21:00+5ююв2595100 4.4 1013156
24 апреля, сб
сб2400:00+4ююв2497100 0.1 101190
03:00+4ююз2392100 1.9 1010214
06:00+3зсз3695100 0.6 1009466
09:00+4з3580100 1.1 1009823
12:00+7зсз3460100 0.3 10081475
15:00+8зсз565584 1.1 10071540
18:00+6сз4765100 0.8 10081224
21:00+3зсз411745 0.8 1009385
25 апреля, вс
вс2500:00+1зсз310811 0.0 1010289
03:000з411845 0.0 1011370
06:000зюз310875 0.0 1011395
09:00+4з586161 0.0 10101283
12:00+6зюз5753100 0.6 10101686
15:00+6зюз685399 1.6 10101768
18:00+5зюз585861 0.5 10111324
21:00+1юз26825 0.5 1012118
26 апреля, пн
пн2600:00−1зюз28885 0.0 1012174
03:00−1юз27915 0.0 1012165
06:00−1юз38905 0.0 1013266
09:00+4з46585 0.0 10121058
12:00+7зюз4539100 0.0 10112543
15:00+8зюз3443100 0.2 10111925
18:00+5зюз3566100 0.9 1010705
21:00+1юз238591 0.9 101046
27 апреля, вт
вт2700:000зюз238972 0.0 101054
03:00−1зюз228932 0.0 101044
06:00−1зюз248738 0.0 1010125
09:00+4з466677 0.0 10091171
12:00+6з5854100 0.6 10091794
15:00+7зсз584698 0.8 10102169
18:00+6зсз47595 0.4 10101337
21:00+1зюз35825 0.6 101294